Lapse_Rate
4.3 4.0 3.4 1.8 1.4 1.6 1.3 2.0 2.3 2.8 2.4 2.6 2.2 1.9 1.5 1.9 2.6 3.2 3.1 2.9 3.1 3.8 3.9 4.2 4.6 5.3 5.7 5.6 6.3 6.9 6.9 7.2 6.3 5.0 6.1 5.4 6.3 7.1 6.8 7.4 7.8 8.1 6.0
2.9 3.3 2.2 1.7 0.9 2.2 2.2 2.2 2.1 2.6 3.1 3.4 3.1 2.8 2.0 3.4 3.3 3.8 3.9 4.0 4.0 3.8 3.8 4.6 5.4 5.9 4.8 4.9 6.0 6.6 6.8 6.6 6.6 5.1 5.6 5.8 6.3 6.4 7.1 7.9 7.2 6.6 6.5
2.1 2.4 1.6 0.9 0.6 1.1 2.5 3.0 1.9 1.6 1.6 2.0 3.1 3.4 2.8 3.9 4.0 4.6 5.0 4.3 4.8 4.9 4.8 5.1 5.6 5.8 4.7 4.9 5.8 6.4 6.3 6.0 6.5 6.0 5.2 5.5 5.5 5.9 6.7 6.5 6.4 6.4 5.8
3.2 3.1 1.3 1.3 1.3 1.1 2.9 3.0 1.4 1.2 1.7 2.5 4.3 4.7 3.8 3.8 4.5 4.8 4.3 4.2 5.0 5.5 5.2 4.5 5.4 5.6 5.2 5.0 5.2 5.7 5.6 6.0 6.4 6.7 6.1 5.5 5.8 5.1 7.4 7.6 6.9 6.4 5.9
3.8 4.1 4.1 4.2 3.5 4.7 3.3 2.9 1.7 1.2 1.9 2.8 3.5 3.2 4.8 4.6 4.5 4.2 4.9 5.1 4.9 5.2 4.1 4.3 4.0 4.4 3.6 4.0 5.0 4.9 5.5 6.1 6.5 6.6 6.1 5.7 5.5 4.9 6.0 6.8 8.9 7.0 5.6
4.7 4.4 4.7 5.1 4.7 4.1 3.5 2.3 1.2 1.4 1.5 3.3 3.2 2.5 1.8 2.7 4.3 3.0 3.9 5.5 5.3 5.2 3.9 3.5 4.0 3.3 2.9 1.9 1.9 3.1 5.3 5.7 5.9 6.4 6.1 6.1 5.4 5.5 5.3 5.9 7.3 6.8 8.4
4.6 4.8 4.8 5.2 4.9 3.7 3.9 2.7 2.3 1.8 2.1 3.2 2.2 2.1 1.6 1.7 2.5 3.1 3.1 5.1 4.5 2.8 3.4 3.4 3.1 3.0 3.0 3.2 1.3 1.5 1.6 0.7 2.9 5.7 5.5 4.9 4.5 3.6 4.7 5.1 5.8 7.2 7.9
4.2 4.3 4.9 5.4 4.7 3.4 3.0 2.8 2.9 2.2 2.0 2.9 3.0 2.5 2.6 3.1 3.3 3.8 3.5 3.1 3.1 3.1 2.9 2.0 2.1 2.0 1.7 1.8 2.0 1.8 2.0 2.3 1.7 2.7 3.2 1.4 1.7 2.1 4.0 4.8 5.7 5.8 4.8
3.5 4.7 5.1 4.9 4.5 3.8 2.9 2.3 2.3 2.0 2.4 2.5 3.2 2.9 3.4 4.8 3.5 3.1 3.9 4.9 4.2 3.0 2.5 2.1 2.1 1.6 1.5 0.9 0.5 0.5 0.8 0.6 -0.1 -0.0 -0.2 -0.5 -0.3 0.2 2.2 3.8 4.1 5.6 6.0
3.9 5.4 5.0 4.5 4.3 3.8 2.8 2.0 1.2 1.9 1.8 2.0 2.4 3.6 4.3 5.6 4.1 4.0 5.0 5.7 4.7 4.3 3.4 2.9 1.6 2.1 1.9 1.1 1.5 1.3 1.5 0.9 0.9 0.6 0.4 0.4 1.1 1.0 0.6 2.1 3.7 5.2 5.1
3.5 5.1 4.7 4.5 3.8 3.7 2.7 1.9 2.0 2.4 2.0 1.9 3.3 4.0 5.1 6.4 5.6 4.5 4.8 6.0 5.3 4.6 4.3 3.4 3.2 1.6 2.2 1.7 1.6 3.0 3.0 1.4 0.8 1.5 1.7 1.9 2.0 2.5 2.3 2.3 2.6 4.4 4.7
1.1 3.5 4.8 4.3 4.8 3.5 3.2 2.3 2.1 2.2 2.4 2.5 3.4 4.3 5.8 6.2 5.6 5.1 4.6 5.6 5.2 5.6 4.3 3.9 3.6 2.7 3.0 2.7 1.7 1.9 1.0 1.2 2.2 2.4 2.6 2.6 2.8 2.9 2.9 2.7 2.7 3.0 3.2
1.5 2.1 2.1 2.3 2.7 2.8 2.4 2.0 2.2 2.5 2.5 2.8 3.9 4.3 4.0 4.7 5.2 5.0 4.9 5.2 5.2 5.6 4.6 4.5 3.8 3.8 3.8 3.3 2.9 1.9 0.9 2.1 2.4 2.5 2.7 3.3 3.6 4.5 4.1 3.5 3.6 3.6 3.4
2.9 2.9 2.6 2.1 1.8 1.8 2.1 2.1 2.4 2.6 3.1 3.4 3.9 4.2 4.4 4.7 5.3 4.8 4.8 4.7 4.6 4.2 4.2 4.2 4.0 4.0 4.0 4.0 3.8 3.2 2.8 2.6 2.6 3.1 3.7 4.3 4.3 4.4 4.6 5.0 5.3 5.7 6.3
4.1 3.9 3.9 3.6 2.9 2.3 2.4 2.4 2.3 2.4 3.3 3.1 3.1 3.7 3.5 3.9 3.7 4.4 4.7 4.8 4.3 3.9 4.1 3.7 3.5 3.9 3.8 3.6 3.6 3.8 3.3 2.5 2.3 3.0 3.3 3.8 4.3 5.0 5.4 5.7 6.0 6.7 6.9
4.0 3.6 3.1 2.6 2.4 2.3 2.6 2.5 2.5 2.6 3.1 3.5 3.7 3.8 3.7 4.3 4.1 4.3 5.0 5.2 4.3 2.3 3.8 3.8 3.5 3.5 3.8 3.7 3.7 3.5 3.3 2.2 3.2 3.4 3.1 3.8 4.3 4.7 5.4 5.6 6.3 6.8 8.2
3.4 3.4 3.0 2.7 2.7 2.6 2.6 2.9 2.8 2.4 2.5 2.9 3.6 3.9 4.0 4.0 4.1 4.6 4.9 5.0 4.4 2.9 4.5 4.3 4.3 3.7 3.6 4.0 3.9 3.8 3.2 3.1 3.3 3.5 3.7 3.8 4.3 5.0 5.2 6.7 7.1 7.4 8.3
2.6 2.3 3.1 2.9 2.8 2.7 2.7 2.7 2.9 2.9 3.0 3.1 2.8 3.5 3.9 4.2 4.4 4.8 4.9 5.4 5.5 3.4 5.4 4.5 4.1 4.0 4.0 3.9 3.9 3.7 3.6 3.4 2.6 3.1 3.3 3.6 3.7 4.6 5.1 5.5 7.6 7.7 8.7
3.3 3.3 3.1 3.1 2.9 3.4 3.2 3.2 3.4 3.5 3.7 4.0 3.8 3.5 3.9 4.3 4.7 5.0 5.5 5.6 5.2 3.4 4.0 4.3 4.3 4.5 4.1 4.0 3.9 3.7 3.7 3.6 3.3 3.6 3.9 3.8 4.0 4.7 5.2 5.4 6.1 6.4 6.9
3.6 3.1 3.4 3.4 3.5 4.2 4.1 4.1 4.0 3.9 4.0 4.3 4.6 4.8 4.5 4.9 5.2 5.3 5.3 5.2 5.1 5.0 4.5 3.8 4.1 4.1 4.0 3.8 3.7 3.5 3.5 3.6 3.5 3.4 3.8 4.1 4.2 4.7 5.1 5.3 6.0 7.0 6.4
4.2 4.1 4.1 4.6 4.7 4.7 5.1 4.9 4.7 4.6 4.6 4.9 5.0 4.4 4.1 5.3 5.1 5.2 5.0 4.7 4.3 4.5 4.3 4.2 3.7 3.6 3.7 3.8 4.1 4.1 3.9 4.2 4.0 4.2 4.4 4.5 4.5 4.6 4.6 5.9 6.2 6.1 7.1
5.0 4.9 4.9 5.1 5.2 5.3 5.5 5.4 5.3 5.3 5.3 5.2 4.6 4.1 3.9 5.0 5.3 5.4 5.4 5.1 4.7 4.7 4.7 4.4 4.6 4.6 4.4 4.5 4.6 4.6 4.6 4.5 4.9 4.4 4.7 4.6 5.1 5.1 5.1 5.5 6.5 6.9 6.8
5.1 5.2 5.2 5.4 5.7 5.4 5.7 5.6 5.5 5.5 5.3 5.1 4.7 4.2 4.4 4.8 4.9 5.0 4.9 4.8 4.9 4.9 4.7 4.8 4.8 5.0 4.9 4.4 4.2 4.5 4.9 5.0 5.2 5.3 5.3 5.4 5.4 5.6 5.6 5.8 5.8 6.4 7.2
5.8 5.7 5.6 5.5 5.5 5.7 5.5 5.6 5.5 5.3 5.5 5.7 5.6 5.5 5.2 5.1 5.1 5.0 5.1 5.4 5.6 5.6 5.4 5.2 5.5 5.7 5.9 5.1 4.7 4.4 4.4 4.5 4.6 4.8 5.2 5.9 6.0 6.3 6.6 6.4 6.4 6.3 6.8
5.3 5.6 5.7 5.4 5.2 5.1 5.2 5.2 5.3 5.4 5.5 5.6 5.6 5.7 5.9 5.7 5.7 5.6 5.5 5.4 5.4 5.4 5.5 5.4 5.6 5.7 5.6 5.2 5.1 4.9 4.7 4.2 4.4 4.8 5.2 5.5 5.8 6.1 6.1 6.3 6.4 6.6 6.5
5.2 4.9 5.5 4.8 4.6 4.6 4.8 5.1 5.4 5.6 5.7 5.6 5.5 5.5 5.4 5.5 5.5 5.4 5.5 5.5 5.7 5.7 5.7 5.5 4.8 3.7 4.1 4.3 4.1 3.7 4.3 4.1 4.1 4.2 4.7 5.4 5.8 6.0 6.2 6.2 6.2 6.5 6.7
Wind_Speed
12 11 11 9 11 10 10 9 8 8 10 11 10 11 10 9 8 8 8 9 11 9 6 5 3 6 7 9 9 6 6 6 8 4 5 8 6 7 8 8 7 7 10
8 9 12 11 10 11 12 12 12 12 11 11 10 10 9 8 9 10 10 9 10 11 10 8 7 6 9 10 8 8 7 6 7 11 9 6 6 7 7 7 6 6 7
10 8 10 12 13 11 12 13 12 12 12 9 10 12 11 11 11 10 10 11 9 9 11 11 9 6 8 8 8 7 6 5 7 8 7 6 6 8 7 7 6 6 6
10 11 11 13 13 11 13 13 12 12 11 11 11 11 11 12 11 10 10 10 8 9 10 9 8 6 7 9 8 8 8 8 9 8 7 7 7 7 6 6 5 4 4
11 13 14 13 13 14 13 14 12 13 12 12 10 9 8 9 8 9 8 11 11 10 9 8 6 4 5 6 6 8 10 8 8 8 7 7 7 7 8 6 5 5 4
11 14 14 14 15 15 14 13 12 12 13 12 12 13 11 5 9 11 11 10 10 10 9 8 7 8 6 8 6 4 5 10 9 7 6 7 8 7 6 6 5 5 4
10 12 13 14 14 13 14 14 14 14 14 14 13 14 12 10 17 19 17 9 9 7 7 8 8 4 8 8 10 10 8 6 3 6 8 7 8 8 8 7 6 5 3
6 8 10 12 12 12 13 13 14 13 13 12 11 11 9 9 18 18 16 9 6 7 8 8 9 8 7 7 8 8 6 5 4 4 5 7 6 11 8 5 5 6 5
4 7 9 9 11 13 13 13 12 12 12 11 10 10 12 12 19 19 14 10 8 8 7 7 9 9 12 13 9 9 8 6 10 12 15 16 14 11 8 7 6 6 4
4 7 8 9 10 12 11 12 11 11 12 9 8 11 14 12 19 20 13 8 9 7 8 8 11 10 15 14 9 9 8 8 10 11 13 13 11 10 7 4 5 5 3
4 6 8 10 10 11 11 9 10 10 9 9 9 10 12 13 15 19 15 9 8 8 7 7 7 14 16 15 10 7 7 10 9 8 7 6 6 8 7 6 5 4 4
3 4 7 9 8 9 11 10 10 10 10 10 9 9 9 10 13 18 17 12 12 9 8 7 8 17 16 15 11 9 13 11 7 6 6 6 6 6 6 7 6 4 2
4 4 4 7 8 9 10 9 8 9 8 8 9 9 8 7 8 17 18 14 15 7 6 9 14 17 16 12 13 13 12 7 7 7 7 7 7 8 9 9 7 7 5
5 5 6 7 7 6 6 7 7 7 7 7 8 8 8 8 8 8 8 9 13 7 8 8 9 10 10 8 9 10 7 7 7 7 7 6 7 6 7 8 6 6 5
5 6 6 6 7 6 5 7 7 8 9 9 9 9 10 9 10 13 13 9 8 8 9 7 7 7 8 8 8 8 8 7 7 6 6 6 7 7 8 7 7 7 7
5 5 5 5 5 5 5 4 3 5 9 9 10 9 7 6 15 20 19 18 18 19 6 8 8 9 9 9 9 9 8 8 8 7 7 7 8 8 9 8 8 9 8
4 4 4 4 5 6 6 6 6 4 10 10 11 12 12 12 19 22 22 19 20 16 7 9 9 9 9 9 9 9 9 9 9 8 8 8 8 8 9 10 10 10 9
1 3 4 5 5 4 5 6 5 7 7 6 10 11 13 14 18 19 18 16 11 10 8 9 9 9 9 9 9 9 9 8 9 9 8 9 9 9 9 10 10 11 10
3 3 3 3 4 5 4 4 5 5 5 6 4 7 9 14 15 15 19 9 10 10 9 9 9 9 9 9 9 9 9 9 9 9 9 9 9 9 10 10 10 13 12
2 3 3 2 2 3 4 4 5 5 6 6 7 8 7 8 7 8 9 9 8 9 9 10 9 9 9 9 8 8 8 9 9 9 10 10 10 10 11 12 11 11 12
1 2 2 1 2 2 3 4 4 4 5 5 5 5 11 9 9 9 9 9 8 9 8 9 8 9 8 8 9 9 9 9 10 10 10 10 10 11 11 12 12 12 12
2 2 2 1 0 1 2 2 3 4 4 4 3 4 8 4 6 7 8 8 8 8 7 8 8 8 8 9 9 9 10 10 10 10 10 10 10 11 11 12 12 12 12
3 3 2 2 2 3 2 2 2 2 3 3 3 4 5 4 4 5 6 6 6 7 7 7 8 8 11 13 15 12 10 10 10 10 10 10 10 11 11 12 12 12 11
6 7 7 6 5 6 5 5 4 4 4 4 4 3 3 3 3 4 4 3 4 5 6 7 8 9 9 12 14 15 16 15 14 14 15 10 10 11 11 11 11 13 12
6 7 7 7 6 6 6 6 5 5 5 4 4 3 2 1 1 2 2 3 4 4 5 5 6 9 11 13 13 14 15 16 16 15 14 14 13 14 11 11 12 12 14
8 8 7 7 7 6 6 6 5 5 5 5 4 4 3 2 2 2 2 2 3 3 4 3 2 4 5 5 5 8 14 15 16 18 16 12 10 10 10 13 16 10 11
Wind_Direction
212 211 204 199 180 166 161 171 169 170 168 176 172 161 152 155 164 165 157 149 143 143 133 128 172 192 174 135 144 137 123 113 128 120 124 141 143 138 130 128 118 105 80
227 206 201 190 187 187 177 176 174 167 170 171 166 161 148 168 171 174 170 163 161 150 144 152 192 199 134 132 142 136 134 125 133 143 150 152 148 160 150 138 126 103 86
212 212 202 194 183 191 193 184 172 157 159 155 169 176 160 176 183 183 175 159 170 161 163 162 184 189 126 127 140 142 140 143 144 154 144 154 147 159 152 145 138 121 92
208 207 209 207 201 192 190 188 167 162 162 170 177 176 170 177 183 184 166 155 168 178 171 153 169 176 143 136 139 143 144 142 144 145 146 155 163 168 184 167 159 153 135
217 214 216 214 203 198 189 183 170 162 163 166 160 151 168 182 180 172 169 169 169 179 155 145 142 154 140 125 151 156 159 154 155 155 153 161 171 177 192 181 186 156 129
231 227 214 198 194 192 186 175 163 159 152 160 163 161 164 165 157 182 167 178 175 176 156 140 140 147 149 138 126 127 165 166 165 166 166 180 178 185 177 186 182 189 189
241 229 211 197 190 186 182 173 173 168 160 171 163 162 174 172 178 192 177 171 173 158 161 146 141 151 156 148 131 124 111 77 106 177 174 177 172 178 173 176 185 199 171
243 233 201 190 181 170 170 174 170 165 163 161 164 165 169 181 184 186 163 146 149 160 160 145 145 154 153 140 141 133 126 119 133 158 153 143 141 156 164 171 166 138 127
241 214 182 176 171 170 165 163 161 156 156 160 168 167 179 185 182 175 157 159 160 157 156 153 155 154 158 150 137 131 123 100 99 112 116 119 126 133 151 155 162 175 166
219 213 179 164 162 171 160 158 158 158 157 151 157 177 182 183 176 166 161 165 161 165 162 164 163 165 166 161 152 151 146 145 135 126 125 127 137 135 146 198 178 191 165
195 193 172 166 158 155 151 151 152 151 145 152 159 176 178 183 173 168 173 169 170 166 175 174 178 180 181 176 172 176 169 155 148 144 145 149 163 159 161 161 168 193 182
145 153 173 150 152 152 154 152 151 151 154 155 159 169 177 173 165 173 177 178 171 174 178 179 180 182 185 183 178 172 155 160 163 167 170 176 181 186 181 183 179 182 170
135 128 131 131 139 148 148 149 150 154 156 161 173 178 179 180 174 175 181 176 181 178 172 184 176 178 184 186 184 180 164 179 179 185 191 191 193 187 181 184 191 192 191
157 155 147 140 137 141 143 150 154 161 162 170 178 183 181 180 177 176 179 178 187 164 164 168 172 173 179 180 180 187 194 195 194 198 201 197 187 187 194 194 196 196 206
169 174 173 164 156 152 160 168 172 183 182 181 190 181 178 188 192 179 178 178 177 174 155 151 159 175 182 187 195 197 198 193 198 204 206 202 204 201 206 199 205 204 216
170 175 169 157 156 161 162 153 175 177 180 181 175 179 190 173 165 183 186 182 176 154 156 177 185 189 196 197 200 201 203 201 205 204 208 210 209 208 209 207 209 216 220
149 171 159 159 167 168 171 175 174 164 177 181 184 185 176 174 178 189 190 187 175 165 183 190 193 198 204 207 208 209 209 209 203 208 209 212 215 217 211 214 215 220 225
142 179 162 164 170 176 185 184 177 173 178 185 200 191 187 180 185 192 186 173 169 190 198 199 205 205 206 209 209 213 213 203 207 211 214 215 213 216 215 221 220 222 224
152 165 157 152 164 177 172 174 179 174 178 175 165 185 184 185 187 183 170 180 185 192 207 213 213 212 211 211 213 213 212 210 210 211 218 218 217 215 220 222 224 223 224
120 129 136 152 164 176 180 180 181 183 178 182 189 189 163 163 176 175 180 191 193 201 203 213 216 217 216 211 210 209 211 212 213 218 223 221 220 217 221 220 220 222 220
97 105 130 155 202 198 184 189 182 180 180 186 191 170 173 180 183 186 188 196 203 210 212 216 218 217 216 215 212 211 216 218 220 222 221 221 218 219 219 222 221 221 227
109 123 118 108 161 197 194 167 168 176 178 181 171 175 170 174 175 187 196 198 200 208 213 216 221 221 218 217 215 217 220 225 224 221 223 223 220 220 220 222 222 222 221
77 84 93 97 89 108 111 108 129 141 146 148 152 152 169 176 174 184 194 197 202 207 208 212 215 220 219 214 215 215 218 221 222 219 220 222 222 223 219 221 219 218 218
83 82 80 76 75 77 74 73 76 77 87 95 111 128 151 179 196 214 222 221 219 214 213 214 218 222 225 217 215 220 224 226 220 218 218 223 225 224 226 223 222 223 228
74 77 77 71 67 67 69 66 65 67 73 74 81 82 89 123 187 229 236 234 236 235 237 232 230 239 238 227 227 225 229 227 220 220 219 222 225 225 223 225 227 227 225
72 70 67 69 65 62 60 63 61 57 57 54 50 44 33 25 9 350 335 302 275 263 261 268 324 336 303 276 272 261 249 240 232 228 225 223 224 223 224 224 227 228 227